PIMOHWEATHER Station Historical Data
Daily Summary for January 19, 2020 Units:  Metric    English   Both
Daily Weekly Monthly Yearly
  High: Low: Average:
Temperature: 31.0 °C 24.0 °C 27.3 °C
Dew Point: 25.0 °C 22.0 °C 23 °C
Humidity: 90% 68% 78%
Wind Speed: 17km/h 0km/h 5.5km/h
Wind Gust: 20km/h - -
Wind- - South
Pressure: 1015.2 hPa 1011.5 hPa -
Precipitation: 0.00 mm    
 
 
Tabular Data for January 19, 2020
Time Temperature Dew Point Pressure Wind Wind Speed Wind Gust Humidity Rainfall Rate (Hourly) solar
00:04 26.0 °C 23.0 °C 1013.0 hPa WNW 2 km/h 4 km/h 81% 0.00 mm 0.00 W/m2
00:09 26.0 °C 23.0 °C 1013.0 hPa NW 4 km/h 4 km/h 82% 0.00 mm 0.00 W/m2
00:14 26.0 °C 23.0 °C 1012.8 hPa NW 3 km/h 4 km/h 82% 0.00 mm 0.00 W/m2
00:19 26.0 °C 23.0 °C 1013.0 hPa WNW 5 km/h 8 km/h 82% 0.00 mm 0.00 W/m2
00:24 26.0 °C 23.0 °C 1012.8 hPa NW 4 km/h 4 km/h 82% 0.00 mm 0.00 W/m2
00:29 26.0 °C 23.0 °C 1012.6 hPa Calm   4 km/h 82% 0.00 mm 0.00 W/m2
00:34 26.0 °C 23.0 °C 1012.6 hPa Calm   4 km/h 82% 0.00 mm 0.00 W/m2
00:39 26.0 °C 23.0 °C 1012.6 hPa Calm     82% 0.00 mm 0.00 W/m2
00:44 26.0 °C 23.0 °C 1012.6 hPa WNW 1 km/h 4 km/h 81% 0.00 mm 0.00 W/m2
00:49 26.0 °C 23.0 °C 1012.6 hPa NW 3 km/h 4 km/h 81% 0.00 mm 0.00 W/m2
00:54 26.0 °C 23.0 °C 1012.6 hPa NNW 5 km/h 8 km/h 81% 0.00 mm 0.00 W/m2
00:59 26.0 °C 23.0 °C 1012.6 hPa NNW 3 km/h 8 km/h 82% 0.00 mm 0.00 W/m2
01:04 26.0 °C 23.0 °C 1012.6 hPa Calm     82% 0.00 mm 0.00 W/m2
01:09 26.0 °C 23.0 °C 1012.6 hPa Calm     83% 0.00 mm 0.00 W/m2
01:14 26.0 °C 23.0 °C 1012.6 hPa Calm     83% 0.00 mm 0.00 W/m2
01:19 26.0 °C 23.0 °C 1012.4 hPa Calm     83% 0.00 mm 0.00 W/m2
01:24 26.0 °C 23.0 °C 1012.3 hPa Calm     84% 0.00 mm 0.00 W/m2
01:29 26.0 °C 23.0 °C 1012.3 hPa Calm     84% 0.00 mm 0.00 W/m2
01:34 26.0 °C 23.0 °C 1012.3 hPa Calm     84% 0.00 mm 0.00 W/m2
01:39 26.0 °C 23.0 °C 1012.3 hPa Calm     84% 0.00 mm 0.00 W/m2
01:44 26.0 °C 23.0 °C 1012.3 hPa Calm     83% 0.00 mm 0.00 W/m2
01:49 26.0 °C 23.0 °C 1012.2 hPa Calm     83% 0.00 mm 0.00 W/m2
01:54 26.0 °C 23.0 °C 1012.2 hPa Calm     83% 0.00 mm 0.00 W/m2
01:59 26.0 °C 23.0 °C 1012.0 hPa WNW 5 km/h 8 km/h 82% 0.00 mm 0.00 W/m2
02:04 26.0 °C 23.0 °C 1012.0 hPa NW 4 km/h 8 km/h 82% 0.00 mm 0.00 W/m2
02:09 26.0 °C 23.0 °C 1011.6 hPa NNW 4 km/h 4 km/h 83% 0.00 mm 0.00 W/m2
02:14 26.0 °C 23.0 °C 1011.6 hPa NW 5 km/h 8 km/h 83% 0.00 mm 0.00 W/m2
02:19 26.0 °C 23.0 °C 1011.6 hPa Calm   4 km/h 83% 0.00 mm 0.00 W/m2
02:24 26.0 °C 23.0 °C 1011.6 hPa North 3 km/h 4 km/h 84% 0.00 mm 0.00 W/m2
02:29 26.0 °C 23.0 °C 1011.6 hPa NNW 3 km/h 4 km/h 84% 0.00 mm 0.00 W/m2
02:34 26.0 °C 23.0 °C 1011.6 hPa North 5 km/h 8 km/h 84% 0.00 mm 0.00 W/m2
02:39 26.0 °C 22.0 °C 1011.6 hPa North 5 km/h 8 km/h 83% 0.00 mm 0.00 W/m2
02:44 25.0 °C 22.0 °C 1011.6 hPa North 4 km/h 8 km/h 83% 0.00 mm 0.00 W/m2
02:49 25.0 °C 23.0 °C 1011.7 hPa NNW 4 km/h 4 km/h 84% 0.00 mm 0.00 W/m2
02:54 25.0 °C 22.0 °C 1011.7 hPa North 3 km/h 4 km/h 84% 0.00 mm 0.00 W/m2
02:59 25.0 °C 22.0 °C 1011.7 hPa West 2 km/h 4 km/h 84% 0.00 mm 0.00 W/m2
03:04 25.0 °C 22.0 °C 1011.5 hPa NW 5 km/h 8 km/h 84% 0.00 mm 0.00 W/m2
03:09 25.0 °C 22.0 °C 1011.7 hPa NW 5 km/h 8 km/h 84% 0.00 mm 0.00 W/m2
03:14 25.0 °C 22.0 °C 1011.6 hPa North 4 km/h 4 km/h 84% 0.00 mm 0.00 W/m2
03:19 25.0 °C 22.0 °C 1011.7 hPa Calm     84% 0.00 mm 0.00 W/m2
03:24 25.0 °C 22.0 °C 1011.7 hPa North 4 km/h 4 km/h 84% 0.00 mm 0.00 W/m2
03:29 25.0 °C 22.0 °C 1011.7 hPa NNE 3 km/h 4 km/h 84% 0.00 mm 0.00 W/m2
03:34 25.0 °C 22.0 °C 1011.7 hPa NNE 1 km/h 4 km/h 84% 0.00 mm 0.00 W/m2
03:39 25.0 °C 22.0 °C 1011.7 hPa North 5 km/h 12 km/h 85% 0.00 mm 0.00 W/m2
03:44 25.0 °C 22.0 °C 1011.7 hPa NNW 6 km/h 8 km/h 85% 0.00 mm 0.00 W/m2
03:49 25.0 °C 22.0 °C 1011.7 hPa NW 3 km/h 4 km/h 85% 0.00 mm 0.00 W/m2
03:54 25.0 °C 22.0 °C 1011.7 hPa North 6 km/h 8 km/h 85% 0.00 mm 0.00 W/m2
03:59 25.0 °C 22.0 °C 1011.7 hPa North 6 km/h 8 km/h 85% 0.00 mm 0.00 W/m2
04:04 25.0 °C 22.0 °C 1011.7 hPa North 5 km/h 8 km/h 85% 0.00 mm 0.00 W/m2
04:09 25.0 °C 22.0 °C 1011.7 hPa North 5 km/h 8 km/h 86% 0.00 mm 0.00 W/m2
04:14 25.0 °C 22.0 °C 1011.7 hPa North 6 km/h 8 km/h 86% 0.00 mm 0.00 W/m2
04:19 25.0 °C 22.0 °C 1011.9 hPa North 6 km/h 8 km/h 86% 0.00 mm 0.00 W/m2
04:24 25.0 °C 22.0 °C 1011.9 hPa NNW 5 km/h 8 km/h 86% 0.00 mm 0.00 W/m2
04:29 25.0 °C 22.0 °C 1012.0 hPa North 8 km/h 8 km/h 86% 0.00 mm 0.00 W/m2
04:34 25.0 °C 22.0 °C 1011.7 hPa North 7 km/h 8 km/h 87% 0.00 mm 0.00 W/m2
04:39 25.0 °C 22.0 °C 1012.0 hPa North 5 km/h 8 km/h 87% 0.00 mm 0.00 W/m2
04:44 25.0 °C 22.0 °C 1012.0 hPa North 4 km/h 8 km/h 87% 0.00 mm 0.00 W/m2
04:49 24.0 °C 22.0 °C 1012.0 hPa North 4 km/h 4 km/h 87% 0.00 mm 0.00 W/m2
04:54 24.0 °C 22.0 °C 1012.0 hPa NNW 4 km/h 8 km/h 87% 0.00 mm 0.00 W/m2
04:59 24.0 °C 22.0 °C 1012.0 hPa NNW 5 km/h 8 km/h 87% 0.00 mm 0.00 W/m2
05:04 24.0 °C 22.0 °C 1012.0 hPa NNW 5 km/h 8 km/h 87% 0.00 mm 0.00 W/m2
05:09 24.0 °C 22.0 °C 1012.0 hPa North 8 km/h 12 km/h 87% 0.00 mm 0.00 W/m2
05:14 24.0 °C 22.0 °C 1012.3 hPa North 9 km/h 12 km/h 87% 0.00 mm 0.00 W/m2
05:19 24.0 °C 22.0 °C 1012.3 hPa North 7 km/h 8 km/h 88% 0.00 mm 0.00 W/m2
05:24 24.0 °C 22.0 °C 1012.2 hPa NW 6 km/h 8 km/h 88% 0.00 mm 0.00 W/m2
05:29 24.0 °C 22.0 °C 1012.3 hPa NNW 5 km/h 8 km/h 88% 0.00 mm 0.00 W/m2
05:34 24.0 °C 22.0 °C 1012.3 hPa North 7 km/h 8 km/h 88% 0.00 mm 0.00 W/m2
05:39 24.0 °C 22.0 °C 1012.5 hPa NNW 6 km/h 12 km/h 88% 0.00 mm 0.00 W/m2
05:44 24.0 °C 22.0 °C 1012.7 hPa North 7 km/h 12 km/h 88% 0.00 mm 0.00 W/m2
05:49 24.0 °C 22.0 °C 1012.7 hPa North 6 km/h 8 km/h 88% 0.00 mm 0.00 W/m2
05:54 24.0 °C 22.0 °C 1012.7 hPa NNW 7 km/h 8 km/h 89% 0.00 mm 0.00 W/m2
05:59 24.0 °C 22.0 °C 1013.0 hPa North 6 km/h 8 km/h 89% 0.00 mm 0.00 W/m2
06:04 24.0 °C 22.0 °C 1013.0 hPa NNE 5 km/h 8 km/h 89% 0.00 mm 0.00 W/m2
06:09 24.0 °C 22.0 °C 1013.0 hPa NNE 6 km/h 8 km/h 89% 0.00 mm 0.00 W/m2
06:14 24.0 °C 22.0 °C 1013.0 hPa North 9 km/h 12 km/h 89% 0.00 mm 0.00 W/m2
06:19 24.0 °C 22.0 °C 1013.0 hPa NNW 7 km/h 8 km/h 90% 0.00 mm 0.00 W/m2
06:24 24.0 °C 22.0 °C 1013.0 hPa North 5 km/h 8 km/h 90% 0.00 mm 0.95 W/m2
06:29 24.0 °C 22.0 °C 1013.2 hPa NNE 5 km/h 8 km/h 90% 0.00 mm 3.91 W/m2
06:34 24.0 °C 22.0 °C 1013.3 hPa North 5 km/h 8 km/h 90% 0.00 mm 6.96 W/m2
06:39 24.0 °C 22.0 °C 1013.3 hPa NNE 1 km/h 4 km/h 89% 0.00 mm 11.73 W/m2
06:44 24.0 °C 22.0 °C 1013.3 hPa NNE 7 km/h 8 km/h 89% 0.00 mm 17.74 W/m2
06:49 24.0 °C 22.0 °C 1013.3 hPa North 5 km/h 8 km/h 89% 0.00 mm 21.89 W/m2
06:54 24.0 °C 22.0 °C 1013.7 hPa North 5 km/h 8 km/h 90% 0.00 mm 26.21 W/m2
06:59 24.0 °C 22.0 °C 1013.7 hPa North 3 km/h 4 km/h 90% 0.00 mm 30.27 W/m2
07:04 24.0 °C 22.0 °C 1013.7 hPa NNW 3 km/h 4 km/h 89% 0.00 mm 33.95 W/m2
07:09 24.0 °C 22.0 °C 1013.7 hPa NW 5 km/h 8 km/h 89% 0.00 mm 37.10 W/m2
07:14 24.0 °C 22.0 °C 1013.9 hPa NNW 6 km/h 8 km/h 89% 0.00 mm 40.52 W/m2
07:19 24.0 °C 23.0 °C 1014.1 hPa NW 10 km/h 16 km/h 89% 0.00 mm 44.23 W/m2
07:24 25.0 °C 23.0 °C 1014.0 hPa North 6 km/h 12 km/h 88% 0.00 mm 47.76 W/m2
07:29 25.0 °C 23.0 °C 1014.0 hPa North 6 km/h 8 km/h 88% 0.00 mm 50.68 W/m2
07:34 25.0 °C 23.0 °C 1014.3 hPa North 8 km/h 8 km/h 87% 0.00 mm 53.60 W/m2
07:39 25.0 °C 23.0 °C 1014.4 hPa North 7 km/h 8 km/h 87% 0.00 mm 56.49 W/m2
07:44 25.0 °C 23.0 °C 1014.4 hPa NW 10 km/h 12 km/h 87% 0.00 mm 58.77 W/m2
07:49 25.0 °C 23.0 °C 1014.4 hPa NW 10 km/h 12 km/h 87% 0.00 mm 61.20 W/m2
07:54 25.0 °C 23.0 °C 1014.4 hPa NNW 8 km/h 8 km/h 86% 0.00 mm 65.25 W/m2
07:59 26.0 °C 23.0 °C 1014.7 hPa NNW 10 km/h 12 km/h 85% 0.00 mm 69.93 W/m2
08:04 26.0 °C 23.0 °C 1014.7 hPa NW 10 km/h 12 km/h 85% 0.00 mm 77.46 W/m2
08:09 26.0 °C 23.0 °C 1014.7 hPa NW 10 km/h 12 km/h 85% 0.00 mm 84.48 W/m2
08:14 26.0 °C 23.0 °C 1014.7 hPa NNW 8 km/h 12 km/h 84% 0.00 mm 92.19 W/m2
08:19 26.0 °C 23.0 °C 1014.7 hPa NW 6 km/h 8 km/h 84% 0.00 mm 98.35 W/m2
08:24 26.0 °C 23.0 °C 1014.9 hPa North 8 km/h 12 km/h 82% 0.00 mm 93.97 W/m2
08:29 26.0 °C 23.0 °C 1014.9 hPa NNW 10 km/h 12 km/h 83% 0.00 mm 116.41 W/m2
08:34 26.0 °C 23.0 °C 1015.0 hPa NW 7 km/h 8 km/h 83% 0.00 mm 124.80 W/m2
08:39 27.0 °C 23.0 °C 1015.0 hPa NW 7 km/h 8 km/h 82% 0.00 mm 131.04 W/m2
08:44 27.0 °C 23.0 °C 1015.0 hPa NNW 9 km/h 12 km/h 81% 0.00 mm 143.86 W/m2
08:49 27.0 °C 23.0 °C 1015.0 hPa North 8 km/h 8 km/h 80% 0.00 mm 152.62 W/m2
08:54 28.0 °C 24.0 °C 1015.0 hPa NNW 6 km/h 8 km/h 79% 0.00 mm 164.46 W/m2
08:59 28.0 °C 24.0 °C 1015.0 hPa NNW 10 km/h 12 km/h 78% 0.00 mm 178.78 W/m2
09:04 28.0 °C 24.0 °C 1015.0 hPa North 10 km/h 12 km/h 77% 0.00 mm 183.89 W/m2
09:09 28.0 °C 24.0 °C 1015.0 hPa NNW 10 km/h 12 km/h 76% 0.00 mm 200.48 W/m2
09:14 28.0 °C 23.0 °C 1015.0 hPa NNE 14 km/h 16 km/h 75% 0.00 mm 195.98 W/m2
09:19 29.0 °C 24.0 °C 1015.2 hPa ESE 6 km/h 8 km/h 75% 0.00 mm 210.10 W/m2
09:24 30.0 °C 24.0 °C 1015.1 hPa SSE 5 km/h 8 km/h 73% 0.00 mm 231.38 W/m2
09:29 30.0 °C 24.0 °C 1015.0 hPa ESE 4 km/h 8 km/h 70% 0.00 mm 274.91 W/m2
09:34 30.0 °C 24.0 °C 1015.0 hPa NNE 5 km/h 8 km/h 70% 0.00 mm 269.80 W/m2
09:39 30.0 °C 24.0 °C 1015.0 hPa NW 9 km/h 12 km/h 72% 0.00 mm 270.87 W/m2
09:44 30.0 °C 24.0 °C 1015.0 hPa East 3 km/h 4 km/h 71% 0.00 mm 296.29 W/m2
09:49 30.0 °C 24.0 °C 1015.0 hPa NNW 5 km/h 8 km/h 69% 0.00 mm 237.12 W/m2
09:54 30.0 °C 24.0 °C 1015.0 hPa NNE 9 km/h 12 km/h 69% 0.00 mm 405.71 W/m2
09:59 30.0 °C 24.0 °C 1014.8 hPa SE 8 km/h 8 km/h 69% 0.00 mm 378.85 W/m2
10:04 31.0 °C 24.0 °C 1014.6 hPa NNE 6 km/h 8 km/h 68% 0.00 mm 338.43 W/m2
10:09 30.0 °C 24.0 °C 1015.0 hPa NE 4 km/h 4 km/h 69% 0.00 mm 358.95 W/m2
10:14 31.0 °C 24.0 °C 1014.9 hPa SE 9 km/h 12 km/h 69% 0.00 mm 186.17 W/m2
10:19 30.0 °C 24.0 °C 1014.9 hPa NNE 12 km/h 16 km/h 71% 0.00 mm 125.65 W/m2
10:24 30.0 °C 24.0 °C 1014.8 hPa NNW 8 km/h 8 km/h 72% 0.00 mm 104.31 W/m2
10:29 30.0 °C 24.0 °C 1014.8 hPa NNE 10 km/h 12 km/h 73% 0.00 mm 102.68 W/m2
10:34 30.0 °C 24.0 °C 1014.6 hPa NNE 5 km/h 8 km/h 73% 0.00 mm 124.44 W/m2
10:39 30.0 °C 24.0 °C 1014.6 hPa North 9 km/h 12 km/h 73% 0.00 mm 131.02 W/m2
10:44 29.0 °C 24.0 °C 1014.6 hPa NNW 10 km/h 12 km/h 72% 0.00 mm 135.32 W/m2
10:49 29.0 °C 24.0 °C 1014.6 hPa NNE 8 km/h 12 km/h 73% 0.00 mm 155.26 W/m2
10:54 29.0 °C 24.0 °C 1014.6 hPa NNW 2 km/h 4 km/h 73% 0.00 mm 155.17 W/m2
10:59 29.0 °C 24.0 °C 1014.6 hPa North 5 km/h 8 km/h 72% 0.00 mm 146.99 W/m2
11:04 29.0 °C 24.0 °C 1014.6 hPa North 11 km/h 12 km/h 73% 0.00 mm 149.98 W/m2
11:09 29.0 °C 24.0 °C 1014.3 hPa NNW 10 km/h 16 km/h 73% 0.00 mm 149.21 W/m2
11:14 29.0 °C 24.0 °C 1014.3 hPa North 15 km/h 16 km/h 73% 0.00 mm 127.17 W/m2
11:19 29.0 °C 24.0 °C 1014.3 hPa NNE 14 km/h 16 km/h 73% 0.00 mm 112.67 W/m2
11:24 29.0 °C 24.0 °C 1014.3 hPa North 10 km/h 16 km/h 76% 0.00 mm 103.44 W/m2
11:29 29.0 °C 25.0 °C 1014.3 hPa SE 9 km/h 12 km/h 76% 0.00 mm 149.78 W/m2
11:34 29.0 °C 25.0 °C 1014.3 hPa SE 12 km/h 16 km/h 77% 0.00 mm 246.26 W/m2
11:39 30.0 °C 25.0 °C 1014.2 hPa SSE 9 km/h 12 km/h 76% 0.00 mm 347.85 W/m2
11:44 30.0 °C 25.0 °C 1014.3 hPa South 7 km/h 8 km/h 74% 0.00 mm 386.80 W/m2
11:49 30.0 °C 24.0 °C 1014.0 hPa South 8 km/h 8 km/h 72% 0.00 mm 460.86 W/m2
11:54 31.0 °C 25.0 °C 1014.0 hPa SE 12 km/h 16 km/h 70% 0.00 mm 496.90 W/m2
11:59 31.0 °C 24.0 °C 1014.0 hPa SE 12 km/h 16 km/h 70% 0.00 mm 352.03 W/m2
12:04 31.0 °C 24.0 °C 1014.0 hPa SSE 12 km/h 16 km/h 69% 0.00 mm 200.80 W/m2
12:09 31.0 °C 24.0 °C 1013.9 hPa SE 5 km/h 8 km/h 69% 0.00 mm 131.15 W/m2
12:14 31.0 °C 24.0 °C 1013.8 hPa NE 15 km/h 16 km/h 69% 0.00 mm 87.06 W/m2
12:19 30.0 °C 24.0 °C 1013.9 hPa NE 14 km/h 16 km/h 70% 0.00 mm 82.50 W/m2
12:24 30.0 °C 24.0 °C 1013.9 hPa ESE 4 km/h 4 km/h 69% 0.00 mm 99.01 W/m2
12:29 30.0 °C 24.0 °C 1013.6 hPa SSE 2 km/h 4 km/h 69% 0.00 mm 147.63 W/m2
12:34 30.0 °C 25.0 °C 1013.6 hPa South 6 km/h 8 km/h 73% 0.00 mm 168.65 W/m2
12:39 30.0 °C 25.0 °C 1013.6 hPa SSE 8 km/h 8 km/h 75% 0.00 mm 150.34 W/m2
12:44 30.0 °C 25.0 °C 1013.6 hPa South 5 km/h 8 km/h 75% 0.00 mm 118.58 W/m2
12:49 30.0 °C 25.0 °C 1013.6 hPa South 11 km/h 12 km/h 77% 0.00 mm 89.53 W/m2
12:54 30.0 °C 25.0 °C 1013.5 hPa South 13 km/h 16 km/h 78% 0.00 mm 66.86 W/m2
12:59 30.0 °C 25.0 °C 1013.3 hPa South 12 km/h 16 km/h 77% 0.00 mm 60.48 W/m2
13:04 29.0 °C 25.0 °C 1013.3 hPa South 8 km/h 12 km/h 77% 0.00 mm 79.64 W/m2
13:09 29.0 °C 25.0 °C 1013.3 hPa South 8 km/h 12 km/h 78% 0.00 mm 111.22 W/m2
13:14 29.0 °C 25.0 °C 1013.1 hPa South 10 km/h 16 km/h 77% 0.00 mm 146.73 W/m2
13:19 29.0 °C 25.0 °C 1012.9 hPa South 9 km/h 12 km/h 77% 0.00 mm 250.86 W/m2
13:24 29.0 °C 25.0 °C 1012.9 hPa SSE 10 km/h 12 km/h 76% 0.00 mm 184.83 W/m2
13:29 29.0 °C 24.0 °C 1012.8 hPa SSE 12 km/h 16 km/h 75% 0.00 mm 196.22 W/m2
13:34 30.0 °C 24.0 °C 1012.9 hPa South 10 km/h 12 km/h 74% 0.00 mm 138.06 W/m2
13:39 29.0 °C 24.0 °C 1012.8 hPa South 9 km/h 12 km/h 73% 0.00 mm 163.14 W/m2
13:44 30.0 °C 24.0 °C 1012.8 hPa SSE 10 km/h 12 km/h 74% 0.00 mm 206.06 W/m2
13:49 30.0 °C 25.0 °C 1012.6 hPa South 8 km/h 12 km/h 76% 0.00 mm 146.99 W/m2
13:54 29.0 °C 25.0 °C 1012.6 hPa SSW 7 km/h 8 km/h 77% 0.00 mm 135.18 W/m2
13:59 30.0 °C 25.0 °C 1012.6 hPa SSW 6 km/h 8 km/h 75% 0.00 mm 158.89 W/m2
14:04 30.0 °C 25.0 °C 1012.5 hPa South 5 km/h 8 km/h 75% 0.00 mm 210.36 W/m2
14:09 30.0 °C 25.0 °C 1012.3 hPa SW 8 km/h 12 km/h 73% 0.00 mm 233.29 W/m2
14:14 30.0 °C 25.0 °C 1012.2 hPa WNW 8 km/h 8 km/h 73% 0.00 mm 340.31 W/m2
14:19 30.0 °C 25.0 °C 1012.2 hPa NW 5 km/h 8 km/h 73% 0.00 mm 211.46 W/m2
14:24 30.0 °C 25.0 °C 1012.2 hPa NNW 10 km/h 12 km/h 73% 0.00 mm 146.68 W/m2
14:29 30.0 °C 25.0 °C 1012.2 hPa NNE 5 km/h 8 km/h 73% 0.00 mm 137.75 W/m2
14:34 30.0 °C 25.0 °C 1012.2 hPa South 7 km/h 8 km/h 73% 0.00 mm 130.09 W/m2
14:39 30.0 °C 25.0 °C 1011.9 hPa South 5 km/h 8 km/h 73% 0.00 mm 159.52 W/m2
14:44 30.0 °C 25.0 °C 1011.9 hPa South 9 km/h 12 km/h 73% 0.00 mm 159.67 W/m2
14:49 30.0 °C 24.0 °C 1011.9 hPa SSE 7 km/h 12 km/h 73% 0.00 mm 118.35 W/m2
14:54 30.0 °C 25.0 °C 1012.2 hPa SSE 4 km/h 8 km/h 73% 0.00 mm 102.05 W/m2
14:59 30.0 °C 25.0 °C 1012.2 hPa West 5 km/h 8 km/h 73% 0.00 mm 148.61 W/m2
15:04 30.0 °C 25.0 °C 1011.9 hPa NNW 4 km/h 8 km/h 73% 0.00 mm 91.85 W/m2
15:09 30.0 °C 24.0 °C 1011.9 hPa NW 5 km/h 8 km/h 74% 0.00 mm 181.64 W/m2
15:14 30.0 °C 25.0 °C 1011.9 hPa WNW 8 km/h 8 km/h 75% 0.00 mm 225.49 W/m2
15:19 30.0 °C 25.0 °C 1012.1 hPa NW 10 km/h 12 km/h 75% 0.00 mm 191.44 W/m2
15:24 30.0 °C 25.0 °C 1011.9 hPa NW 9 km/h 12 km/h 76% 0.00 mm 80.22 W/m2
15:29 29.0 °C 25.0 °C 1011.9 hPa WNW 5 km/h 12 km/h 76% 0.00 mm 75.63 W/m2
15:34 29.0 °C 25.0 °C 1011.9 hPa NW 8 km/h 8 km/h 77% 0.00 mm 67.95 W/m2
15:39 29.0 °C 25.0 °C 1011.9 hPa NW 8 km/h 8 km/h 77% 0.00 mm 69.58 W/m2
15:44 29.0 °C 24.0 °C 1011.9 hPa NNW 10 km/h 12 km/h 72% 0.00 mm 94.17 W/m2
15:49 29.0 °C 24.0 °C 1011.9 hPa NNW 10 km/h 12 km/h 71% 0.00 mm 120.06 W/m2
15:54 30.0 °C 24.0 °C 1012.3 hPa NNE 9 km/h 12 km/h 71% 0.00 mm 133.32 W/m2
15:59 30.0 °C 24.0 °C 1012.3 hPa North 17 km/h 20 km/h 70% 0.00 mm 132.57 W/m2
16:04 29.0 °C 23.0 °C 1012.3 hPa North 15 km/h 20 km/h 70% 0.00 mm 103.85 W/m2
16:09 29.0 °C 23.0 °C 1012.3 hPa North 13 km/h 16 km/h 70% 0.00 mm 114.99 W/m2
16:14 29.0 °C 23.0 °C 1012.5 hPa NNE 14 km/h 20 km/h 70% 0.00 mm 102.43 W/m2
16:19 29.0 °C 23.0 °C 1012.5 hPa NNE 12 km/h 16 km/h 70% 0.00 mm 105.30 W/m2
16:24 30.0 °C 23.0 °C 1012.6 hPa NNE 13 km/h 16 km/h 69% 0.00 mm 200.85 W/m2
16:29 30.0 °C 23.0 °C 1012.6 hPa NNE 10 km/h 12 km/h 69% 0.00 mm 144.96 W/m2
16:34 30.0 °C 23.0 °C 1012.6 hPa NNE 15 km/h 16 km/h 69% 0.00 mm 105.52 W/m2
16:39 30.0 °C 23.0 °C 1012.6 hPa NNE 14 km/h 16 km/h 68% 0.00 mm 81.86 W/m2
16:44 30.0 °C 23.0 °C 1012.8 hPa NE 10 km/h 20 km/h 68% 0.00 mm 82.43 W/m2
16:49 30.0 °C 23.0 °C 1012.6 hPa NE 13 km/h 16 km/h 68% 0.00 mm 85.39 W/m2
16:54 30.0 °C 23.0 °C 1012.9 hPa NNE 13 km/h 16 km/h 69% 0.00 mm 76.21 W/m2
16:59 30.0 °C 23.0 °C 1012.8 hPa NE 9 km/h 16 km/h 69% 0.00 mm 76.67 W/m2
17:04 30.0 °C 23.0 °C 1012.8 hPa NNE 15 km/h 16 km/h 69% 0.00 mm 74.21 W/m2
17:09 29.0 °C 23.0 °C 1012.9 hPa NNE 13 km/h 16 km/h 69% 0.00 mm 63.57 W/m2
17:14 29.0 °C 23.0 °C 1012.9 hPa North 16 km/h 20 km/h 70% 0.00 mm 56.40 W/m2
17:19 29.0 °C 23.0 °C 1012.9 hPa NNE 10 km/h 12 km/h 69% 0.00 mm 50.67 W/m2
17:24 29.0 °C 23.0 °C 1013.1 hPa NE 8 km/h 12 km/h 70% 0.00 mm 42.74 W/m2
17:29 29.0 °C 23.0 °C 1013.3 hPa East 5 km/h 8 km/h 70% 0.00 mm 33.60 W/m2
17:34 29.0 °C 23.0 °C 1013.3 hPa ESE 3 km/h 4 km/h 70% 0.00 mm 22.01 W/m2
17:39 29.0 °C 23.0 °C 1013.3 hPa NNE 10 km/h 12 km/h 70% 0.00 mm 12.14 W/m2
17:44 29.0 °C 23.0 °C 1013.3 hPa NNE 10 km/h 16 km/h 70% 0.00 mm 7.00 W/m2
17:49 29.0 °C 23.0 °C 1013.3 hPa NE 5 km/h 8 km/h 70% 0.00 mm 3.46 W/m2
17:54 29.0 °C 23.0 °C 1013.3 hPa NE 6 km/h 8 km/h 70% 0.00 mm 0.77 W/m2
17:59 29.0 °C 23.0 °C 1013.3 hPa NE 5 km/h 8 km/h 70% 0.00 mm 0.00 W/m2
18:04 29.0 °C 23.0 °C 1013.3 hPa South 4 km/h 4 km/h 71% 0.00 mm 0.00 W/m2
18:09 29.0 °C 23.0 °C 1013.3 hPa NNE 10 km/h 12 km/h 71% 0.00 mm 0.00 W/m2
18:14 29.0 °C 23.0 °C 1013.5 hPa ENE 9 km/h 12 km/h 71% 0.00 mm 0.00 W/m2
18:19 28.0 °C 23.0 °C 1013.4 hPa NE 6 km/h 8 km/h 71% 0.00 mm 0.00 W/m2
18:24 28.0 °C 23.0 °C 1013.6 hPa ENE 5 km/h 8 km/h 72% 0.00 mm 0.00 W/m2
18:29 28.0 °C 23.0 °C 1013.6 hPa ENE 9 km/h 12 km/h 72% 0.00 mm 0.00 W/m2
18:34 28.0 °C 22.0 °C 1013.6 hPa ENE 4 km/h 8 km/h 71% 0.00 mm 0.00 W/m2
18:39 28.0 °C 22.0 °C 1013.6 hPa ENE 4 km/h 8 km/h 72% 0.00 mm 0.00 W/m2
18:44 28.0 °C 22.0 °C 1013.7 hPa Calm   4 km/h 72% 0.00 mm 0.00 W/m2
18:49 28.0 °C 22.0 °C 1013.7 hPa Calm   4 km/h 72% 0.00 mm 0.00 W/m2
18:54 28.0 °C 22.0 °C 1013.9 hPa ENE 5 km/h 8 km/h 72% 0.00 mm 0.00 W/m2
18:59 28.0 °C 22.0 °C 1014.0 hPa Calm     72% 0.00 mm 0.00 W/m2
19:04 28.0 °C 22.0 °C 1014.0 hPa East 1 km/h 4 km/h 72% 0.00 mm 0.00 W/m2
19:09 28.0 °C 22.0 °C 1014.0 hPa Calm   4 km/h 73% 0.00 mm 0.00 W/m2
19:14 28.0 °C 22.0 °C 1014.0 hPa Calm   4 km/h 73% 0.00 mm 0.00 W/m2
19:19 28.0 °C 22.0 °C 1014.0 hPa ESE 1 km/h 4 km/h 73% 0.00 mm 0.00 W/m2
19:24 28.0 °C 23.0 °C 1014.1 hPa SE 3 km/h 4 km/h 74% 0.00 mm 0.00 W/m2
19:29 28.0 °C 23.0 °C 1014.3 hPa ESE 2 km/h 4 km/h 74% 0.00 mm 0.00 W/m2
19:34 28.0 °C 23.0 °C 1014.3 hPa Calm   4 km/h 74% 0.00 mm 0.00 W/m2
19:39 27.0 °C 22.0 °C 1014.3 hPa ENE 2 km/h 4 km/h 74% 0.00 mm 0.00 W/m2
19:44 27.0 °C 22.0 °C 1014.3 hPa ESE 2 km/h 4 km/h 74% 0.00 mm 0.00 W/m2
19:49 27.0 °C 22.0 °C 1014.3 hPa ESE 1 km/h 4 km/h 74% 0.00 mm 0.00 W/m2
19:54 27.0 °C 22.0 °C 1014.3 hPa SE 4 km/h 8 km/h 74% 0.00 mm 0.00 W/m2
19:59 27.0 °C 22.0 °C 1014.3 hPa ESE 6 km/h 8 km/h 74% 0.00 mm 0.00 W/m2
20:04 27.0 °C 22.0 °C 1014.3 hPa ESE 2 km/h 4 km/h 74% 0.00 mm 0.00 W/m2
20:09 27.0 °C 22.0 °C 1014.3 hPa Calm   4 km/h 74% 0.00 mm 0.00 W/m2
20:14 27.0 °C 22.0 °C 1014.7 hPa Calm     75% 0.00 mm 0.00 W/m2
20:19 27.0 °C 22.0 °C 1014.7 hPa East 4 km/h 8 km/h 75% 0.00 mm 0.00 W/m2
20:24 27.0 °C 22.0 °C 1014.7 hPa ESE 2 km/h 8 km/h 75% 0.00 mm 0.00 W/m2
20:29 27.0 °C 22.0 °C 1014.7 hPa ESE 2 km/h 4 km/h 76% 0.00 mm 0.00 W/m2
20:34 27.0 °C 22.0 °C 1014.7 hPa ESE 3 km/h 4 km/h 76% 0.00 mm 0.00 W/m2
20:39 27.0 °C 22.0 °C 1014.7 hPa ESE 1 km/h 4 km/h 76% 0.00 mm 0.00 W/m2
20:44 27.0 °C 22.0 °C 1014.8 hPa Calm   4 km/h 76% 0.00 mm 0.00 W/m2
20:49 27.0 °C 22.0 °C 1014.9 hPa Calm     76% 0.00 mm 0.00 W/m2
20:54 27.0 °C 22.0 °C 1014.8 hPa Calm     77% 0.00 mm 0.00 W/m2
20:59 27.0 °C 22.0 °C 1015.0 hPa Calm     77% 0.00 mm 0.00 W/m2
21:04 27.0 °C 22.0 °C 1014.7 hPa SSE 3 km/h 4 km/h 77% 0.00 mm 0.00 W/m2
21:09 27.0 °C 22.0 °C 1015.0 hPa ESE 4 km/h 4 km/h 77% 0.00 mm 0.00 W/m2
21:14 27.0 °C 23.0 °C 1014.9 hPa Calm   4 km/h 78% 0.00 mm 0.00 W/m2
21:19 27.0 °C 23.0 °C 1014.9 hPa Calm     78% 0.00 mm 0.00 W/m2
21:24 27.0 °C 22.0 °C 1014.7 hPa Calm     78% 0.00 mm 0.00 W/m2
21:29 26.0 °C 22.0 °C 1015.0 hPa Calm   4 km/h 78% 0.00 mm 0.00 W/m2
21:34 26.0 °C 22.0 °C 1015.0 hPa Calm   4 km/h 78% 0.00 mm 0.00 W/m2
21:39 26.0 °C 22.0 °C 1015.0 hPa Calm     79% 0.00 mm 0.00 W/m2
21:44 26.0 °C 23.0 °C 1015.0 hPa Calm     79% 0.00 mm 0.00 W/m2
21:49 26.0 °C 22.0 °C 1015.0 hPa Calm     78% 0.00 mm 0.00 W/m2
21:54 26.0 °C 22.0 °C 1014.7 hPa SE 1 km/h 4 km/h 78% 0.00 mm 0.00 W/m2
21:59 26.0 °C 22.0 °C 1014.9 hPa SE 1 km/h 4 km/h 79% 0.00 mm 0.00 W/m2
22:04 26.0 °C 22.0 °C 1014.7 hPa ESE 1 km/h 4 km/h 79% 0.00 mm 0.00 W/m2
22:09 26.0 °C 22.0 °C 1014.7 hPa SE 4 km/h 4 km/h 79% 0.00 mm 0.00 W/m2
22:14 26.0 °C 22.0 °C 1014.7 hPa Calm   4 km/h 79% 0.00 mm 0.00 W/m2
22:19 26.0 °C 22.0 °C 1014.7 hPa SE 2 km/h 4 km/h 79% 0.00 mm 0.00 W/m2
22:24 26.0 °C 23.0 °C 1014.7 hPa Calm     80% 0.00 mm 0.00 W/m2
22:29 26.0 °C 23.0 °C 1014.7 hPa Calm     80% 0.00 mm 0.00 W/m2
22:34 26.0 °C 23.0 °C 1014.9 hPa Calm     80% 0.00 mm 0.00 W/m2
22:39 26.0 °C 22.0 °C 1014.7 hPa Calm     79% 0.00 mm 0.00 W/m2
22:44 26.0 °C 23.0 °C 1014.7 hPa Calm     80% 0.00 mm 0.00 W/m2
22:49 26.0 °C 22.0 °C 1014.7 hPa Calm     80% 0.00 mm 0.00 W/m2
22:54 26.0 °C 22.0 °C 1014.7 hPa Calm     80% 0.00 mm 0.00 W/m2
22:59 26.0 °C 22.0 °C 1014.7 hPa WNW 1 km/h 4 km/h 80% 0.00 mm 0.00 W/m2
23:04 26.0 °C 22.0 °C 1014.4 hPa WNW 1 km/h 4 km/h 79% 0.00 mm 0.00 W/m2
23:09 26.0 °C 22.0 °C 1014.6 hPa North 1 km/h 4 km/h 79% 0.00 mm 0.00 W/m2
23:14 26.0 °C 22.0 °C 1014.4 hPa NNW 3 km/h 4 km/h 79% 0.00 mm 0.00 W/m2
23:19 26.0 °C 22.0 °C 1014.4 hPa Calm     79% 0.00 mm 0.00 W/m2
23:24 26.0 °C 22.0 °C 1014.4 hPa North 1 km/h 4 km/h 79% 0.00 mm 0.00 W/m2
23:29 26.0 °C 22.0 °C 1014.4 hPa NNE 2 km/h 4 km/h 79% 0.00 mm 0.00 W/m2
23:34 26.0 °C 22.0 °C 1014.4 hPa Calm   4 km/h 80% 0.00 mm 0.00 W/m2
23:39 26.0 °C 22.0 °C 1014.2 hPa Calm     81% 0.00 mm 0.00 W/m2
23:44 26.0 °C 22.0 °C 1014.2 hPa Calm     81% 0.00 mm 0.00 W/m2
23:49 26.0 °C 22.0 °C 1014.0 hPa Calm     81% 0.00 mm 0.00 W/m2
23:54 26.0 °C 22.0 °C 1014.4 hPa Calm     81% 0.00 mm 0.00 W/m2
23:59 26.0 °C 22.0 °C 1014.2 hPa NW 4 km/h 4 km/h 81% 0.00 mm 0.00 W/m2
PIMOHWEATHER Philippines
Compliments of Weather Underground - 2 mb